2023/01/29 00:00:00,65.2,-4.3
2023/01/29 00:10:00,65.3,-4.4
2023/01/29 00:20:00,65.3,-4.1
2023/01/29 00:30:00,65.3,-4.0
2023/01/29 00:40:00,65.4,-4.2
2023/01/29 00:50:00,65.2,-4.4
2023/01/29 01:00:00,65.1,-4.4
2023/01/29 01:10:00,65.1,-3.8
2023/01/29 01:20:00,65.3,-4.0
2023/01/29 01:30:00,65.4,-4.3
2023/01/29 01:40:00,65.1,-4.1
2023/01/29 01:50:00,65.1,-3.9
2023/01/29 02:00:00,65.3,-3.7
2023/01/29 02:10:00,65.4,-3.8
2023/01/29 02:20:00,65.7,-3.8
2023/01/29 02:30:00,65.6,-3.9
2023/01/29 02:40:00,65.8,-4.1
2023/01/29 02:50:00,66.1,-4.1
2023/01/29 03:00:00,66.0,-3.7
2023/01/29 03:10:00,65.7,-4.1
2023/01/29 03:20:00,65.6,-4.5
2023/01/29 03:30:00,65.5,-4.6
2023/01/29 03:40:00,65.4,-4.8
2023/01/29 03:50:00,65.3,-4.5
2023/01/29 04:00:00,65.1,-4.5
2023/01/29 04:10:00,65.0,-4.6
2023/01/29 04:20:00,64.8,-4.5
2023/01/29 04:30:00,64.8,-4.6
2023/01/29 04:40:00,65.0,-4.4
2023/01/29 04:50:00,65.0,-4.2
2023/01/29 05:00:00,64.9,-4.3
2023/01/29 05:10:00,64.8,-4.1
2023/01/29 05:20:00,64.7,-3.8
2023/01/29 05:30:00,65.3,-3.6
2023/01/29 05:40:00,65.4,-3.9
2023/01/29 05:50:00,65.3,-3.5
2023/01/29 06:00:00,65.3,-3.7
2023/01/29 06:10:00,65.2,-3.6
2023/01/29 06:20:00,65.1,-3.6
2023/01/29 06:30:00,65.0,-3.3
2023/01/29 06:40:00,64.9,-3.3
2023/01/29 06:50:00,64.8,-3.4
2023/01/29 07:00:00,64.8,-3.3
2023/01/29 07:10:00,65.2,-3.3
2023/01/29 07:20:00,65.4,-3.4
2023/01/29 07:30:00,65.3,-3.3
2023/01/29 07:40:00,65.1,-3.2
2023/01/29 07:50:00,64.9,-2.9
2023/01/29 08:00:00,64.9,-3.1
2023/01/29 08:10:00,65.0,-3.1
2023/01/29 08:20:00,65.1,-2.8
2023/01/29 08:30:00,65.1,-2.6
2023/01/29 08:40:00,65.2,-2.6
2023/01/29 08:50:00,65.0,-2.4
2023/01/29 09:00:00,64.9,-2.4
2023/01/29 09:10:00,64.7,-2.0
2023/01/29 09:20:00,64.7,-1.7
2023/01/29 09:30:00,64.6,-1.3
2023/01/29 09:40:00,64.5,-0.9
2023/01/29 09:50:00,64.4,-0.6
2023/01/29 10:00:00,64.3,-1.0
2023/01/29 10:10:00,64.2,-1.1
2023/01/29 10:20:00,64.2,-1.2
2023/01/29 10:30:00,64.3,-0.8
2023/01/29 10:40:00,64.4,-0.8
2023/01/29 10:50:00,64.2,-0.5
2023/01/29 11:00:00,64.0,-0.3
2023/01/29 11:10:00,63.5, 0.1
2023/01/29 11:20:00,63.3, 0.3
2023/01/29 11:30:00,63.1,-0.0
2023/01/29 11:40:00,63.2,-0.9
2023/01/29 11:50:00,63.4, 0.2
2023/01/29 12:00:00,63.3,-0.2
2023/01/29 12:10:00,63.3,-0.2
2023/01/29 12:20:00,63.1,-0.0
2023/01/29 12:30:00,63.2,-0.0
2023/01/29 12:40:00,63.1, 0.1
2023/01/29 12:50:00,63.2,-0.0
2023/01/29 13:00:00,63.6, 0.2
2023/01/29 13:10:00,63.5, 0.2
2023/01/29 13:20:00,63.4, 0.3
2023/01/29 13:30:00,63.4, 0.4
2023/01/29 13:40:00,63.3, 0.9
2023/01/29 13:50:00,63.2, 0.4
2023/01/29 14:00:00,63.1, 0.7
2023/01/29 14:10:00,63.0, 0.8
2023/01/29 14:20:00,62.8, 0.8
2023/01/29 14:30:00,62.8, 1.0
2023/01/29 14:40:00,62.9, 0.8
2023/01/29 14:50:00,62.8, 0.8
2023/01/29 15:00:00,62.6, 0.9
2023/01/29 15:10:00,62.5, 0.2
2023/01/29 15:20:00,62.4, 0.4
2023/01/29 15:30:00,62.5, 0.4
2023/01/29 15:40:00,62.5, 0.3
2023/01/29 15:50:00,62.5, 0.7
2023/01/29 16:00:00,62.5,-0.2
2023/01/29 16:10:00,62.5,-0.1
2023/01/29 16:20:00,62.5,-0.2
2023/01/29 16:30:00,62.5,-0.5
2023/01/29 16:40:00,62.4,-0.8
2023/01/29 16:50:00,62.4,-0.8
2023/01/29 17:00:00,62.4,-0.9
2023/01/29 17:10:00,62.4,-0.9
2023/01/29 17:20:00,62.3,-1.3
2023/01/29 17:30:00,62.2,-1.1
2023/01/29 17:40:00,62.1,-1.0
2023/01/29 17:50:00,62.0,-0.9
2023/01/29 18:00:00,61.8,-1.3
2023/01/29 18:10:00,61.8,-1.3
2023/01/29 18:20:00,61.7,-1.3
2023/01/29 18:30:00,61.8,-1.6
2023/01/29 18:40:00,62.1,-1.5
2023/01/29 18:50:00,62.3,-1.7
2023/01/29 19:00:00,62.3,-1.7
2023/01/29 19:10:00,62.4,-1.7
2023/01/29 19:20:00,62.4,-1.5
2023/01/29 19:30:00,62.4,-1.8
2023/01/29 19:40:00,62.3,-1.8
2023/01/29 19:50:00,62.2,-1.7
2023/01/29 20:00:00,62.1,-2.0
2023/01/29 20:10:00,62.1,-2.0
2023/01/29 20:20:00,62.1,-2.0
2023/01/29 20:30:00,62.0,-2.0
2023/01/29 20:40:00,61.9,-2.3
2023/01/29 20:50:00,61.8,-2.5
2023/01/29 21:00:00,61.6,-2.1
2023/01/29 21:10:00,61.6,-2.7
2023/01/29 21:20:00,61.6,-2.8
2023/01/29 21:30:00,61.5,-2.9
2023/01/29 21:40:00,61.3,-3.1
2023/01/29 21:50:00,61.3,-3.1
2023/01/29 22:00:00,61.2,-3.1
2023/01/29 22:10:00,61.2,-3.2
2023/01/29 22:20:00,61.1,-3.1
2023/01/29 22:30:00,61.0,-3.1
2023/01/29 22:40:00,60.9,-3.1
2023/01/29 22:50:00,61.0,-2.9
2023/01/29 23:00:00,61.0,-3.1
2023/01/29 23:10:00,61.1,-3.0
2023/01/29 23:20:00,61.0,-2.8
2023/01/29 23:30:00,60.9,-2.6
2023/01/29 23:40:00,60.8,-3.0
2023/01/29 23:50:00,60.7,-3.1
